TimeEST,TemperatureF,Dew PointF,Humidity,Sea Level PressureIn,VisibilityMPH,Wind Direction,Wind SpeedMPH,Gust SpeedMPH,PrecipitationIn,Events,Conditions,WindDirDegrees,DateUTC
12:13 AM,42.8,41.0,93,29.57,10.0,Calm,Calm,-,0.01,Rain,Light Rain,0,2012-11-24 05:13:00
12:24 AM,42.8,39.2,87,29.57,9.0,Calm,Calm,-,0.01,Rain,Light Rain,0,2012-11-24 05:24:00
12:40 AM,42.8,39.2,87,29.57,8.0,Calm,Calm,-,0.01,Rain,Light Rain,0,2012-11-24 05:40:00
12:47 AM,42.8,39.2,87,29.57,5.0,Calm,Calm,-,0.02,Rain,Light Rain,0,2012-11-24 05:47:00
12:54 AM,42.1,39.9,92,29.58,3.0,Calm,Calm,-,0.03,Rain,Rain,0,2012-11-24 05:54:00
1:03 AM,42.8,39.2,87,29.57,4.0,Calm,Calm,-,0.01,Rain,Light Rain,0,2012-11-24 06:03:00
1:54 AM,41.0,37.9,89,29.58,3.0,Calm,Calm,-,0.01,,Overcast,0,2012-11-24 06:54:00
2:02 AM,41.0,39.2,93,29.57,2.5,Calm,Calm,-,N/A,,Overcast,0,2012-11-24 07:02:00
2:15 AM,39.2,39.2,100,29.57,1.2,Calm,Calm,-,N/A,,Overcast,0,2012-11-24 07:15:00
2:25 AM,39.2,39.2,100,29.56,3.0,Variable,3.5,-,N/A,,Overcast,0,2012-11-24 07:25:00
2:50 AM,39.2,39.2,100,29.56,2.0,Calm,Calm,-,0.00,Rain,Light Rain,0,2012-11-24 07:50:00
2:54 AM,39.9,39.0,97,29.57,1.8,Calm,Calm,-,0.00,Rain,Light Rain,0,2012-11-24 07:54:00
3:00 AM,41.0,39.2,93,29.56,3.0,Calm,Calm,-,0.00,Rain,Light Rain,0,2012-11-24 08:00:00
3:10 AM,41.0,37.4,87,29.56,4.0,NNE,4.6,-,0.01,Rain,Light Rain,20,2012-11-24 08:10:00
3:22 AM,39.2,35.6,87,29.56,3.0,ENE,3.5,-,0.05,Rain,Light Rain,70,2012-11-24 08:22:00
3:34 AM,39.2,35.6,87,29.56,10.0,Calm,Calm,-,0.05,,Overcast,0,2012-11-24 08:34:00
3:41 AM,39.2,35.6,87,29.57,10.0,Calm,Calm,-,0.05,,Overcast,0,2012-11-24 08:41:00
3:54 AM,37.9,34.0,86,29.57,10.0,South,3.5,-,0.05,,Overcast,190,2012-11-24 08:54:00
4:54 AM,37.0,33.1,86,29.58,10.0,SSW,4.6,-,0.00,,Overcast,210,2012-11-24 09:54:00
5:54 AM,37.0,30.0,76,29.57,10.0,SSW,4.6,-,0.00,,Overcast,210,2012-11-24 10:54:00
6:54 AM,36.0,28.9,76,29.58,10.0,Calm,Calm,-,0.00,,Overcast,0,2012-11-24 11:54:00
7:54 AM,35.1,30.0,82,29.58,10.0,SSW,3.5,-,N/A,,Overcast,200,2012-11-24 12:54:00
8:54 AM,37.0,28.0,70,29.58,10.0,SSW,6.9,-,N/A,,Mostly Cloudy,210,2012-11-24 13:54:00
9:54 AM,37.0,24.1,59,29.58,10.0,SW,4.6,-,N/A,,Overcast,220,2012-11-24 14:54:00
10:47 AM,35.6,26.6,70,29.55,2.5,Variable,6.9,-,0.00,Snow,Light Snow,0,2012-11-24 15:47:00
10:54 AM,35.1,26.1,70,29.58,2.5,Variable,6.9,-,0.00,Snow,Light Snow,0,2012-11-24 15:54:00
11:04 AM,35.6,26.6,70,29.55,5.0,SW,5.8,-,0.00,Snow,Light Snow,230,2012-11-24 16:04:00
11:19 AM,35.6,26.6,70,29.54,9.0,Variable,4.6,-,0.00,,Overcast,0,2012-11-24 16:19:00
11:54 AM,35.1,24.1,64,29.55,7.0,West,8.1,17.3,0.00,,Overcast,260,2012-11-24 16:54:00
12:54 PM,34.0,23.0,64,29.56,10.0,Variable,6.9,-,0.00,,Overcast,0,2012-11-24 17:54:00
1:24 PM,33.8,23.0,65,29.55,1.8,WNW,12.7,18.4,0.00,Snow,Light Snow,300,2012-11-24 18:24:00
1:37 PM,32.0,24.8,75,29.56,2.5,Variable,4.6,-,0.00,Snow,Light Snow,0,2012-11-24 18:37:00
1:44 PM,33.8,23.0,65,29.56,7.0,NW,4.6,-,0.00,Snow,Light Snow,310,2012-11-24 18:44:00
1:52 PM,33.8,21.2,60,29.56,9.0,WNW,5.8,-,0.00,,Overcast,300,2012-11-24 18:52:00
1:54 PM,33.1,21.9,64,29.58,8.0,WNW,6.9,-,0.00,Snow,Light Snow,300,2012-11-24 18:54:00
1:59 PM,32.0,21.2,64,29.56,2.5,NW,9.2,-,0.00,Snow,Light Snow,320,2012-11-24 18:59:00
2:05 PM,30.2,21.2,69,29.56,1.0,NW,13.8,21.9,0.00,Snow,Light Snow,310,2012-11-24 19:05:00
2:15 PM,30.2,24.8,80,29.57,2.0,NNW,6.9,-,0.00,Snow,Light Snow,330,2012-11-24 19:15:00
2:22 PM,30.2,24.8,80,29.56,1.0,NNW,8.1,-,0.00,Snow,Light Snow,330,2012-11-24 19:22:00
2:28 PM,30.2,24.8,80,29.56,2.0,NW,3.5,-,0.00,Snow,Light Snow,310,2012-11-24 19:28:00
2:37 PM,30.2,23.0,75,29.56,5.0,NW,6.9,-,0.00,Snow,Light Snow,310,2012-11-24 19:37:00
2:54 PM,30.0,23.0,75,29.60,2.0,Variable,4.6,-,0.00,Snow,Light Snow,0,2012-11-24 19:54:00
3:14 PM,30.2,24.8,80,29.57,1.0,NW,4.6,-,0.00,Snow,Light Snow,310,2012-11-24 20:14:00
3:28 PM,30.2,24.8,80,29.57,0.8,Variable,4.6,-,0.00,Snow,Light Snow,0,2012-11-24 20:28:00
3:37 PM,28.4,24.8,86,29.58,0.2,Variable,4.6,-,0.01,Snow,Heavy Snow,0,2012-11-24 20:37:00
3:54 PM,28.9,24.1,82,29.61,0.2,NW,8.1,-,0.02,Snow,Heavy Snow,310,2012-11-24 20:54:00
4:02 PM,28.4,24.8,86,29.58,0.5,Variable,4.6,-,0.00,Snow,Snow,0,2012-11-24 21:02:00
4:07 PM,28.4,24.8,86,29.58,1.0,Calm,Calm,-,0.00,Snow,Light Snow,0,2012-11-24 21:07:00
4:12 PM,28.4,24.8,86,29.58,2.0,Variable,3.5,-,0.00,Snow,Light Snow,0,2012-11-24 21:12:00
4:19 PM,30.2,21.2,69,29.58,8.0,NW,8.1,-,0.00,Snow,Light Snow,320,2012-11-24 21:19:00
4:28 PM,30.2,19.4,64,29.58,8.0,NW,15.0,29.9,0.00,Snow,Light Snow,310,2012-11-24 21:28:00
4:54 PM,30.0,19.0,64,29.61,8.0,NNW,6.9,-,0.00,Snow,Light Snow,330,2012-11-24 21:54:00
5:54 PM,30.0,18.0,61,29.63,5.0,WNW,17.3,28.8,0.00,Snow,Light Snow,300,2012-11-24 22:54:00
6:49 PM,28.4,19.4,69,29.60,2.5,NW,11.5,21.9,0.00,Snow,Light Snow,310,2012-11-24 23:49:00
6:54 PM,28.9,19.9,69,29.63,2.0,WNW,9.2,21.9,0.00,Snow,Light Snow,300,2012-11-24 23:54:00
7:21 PM,28.4,19.4,69,29.60,3.0,NW,9.2,-,0.00,Snow,Light Snow,310,2012-11-25 00:21:00
7:31 PM,28.4,19.4,69,29.61,2.5,NW,13.8,21.9,0.00,Snow,Light Snow,310,2012-11-25 00:31:00
7:54 PM,28.0,19.9,72,29.64,2.0,NW,12.7,19.6,0.00,Snow,Light Snow,310,2012-11-25 00:54:00
8:07 PM,28.4,19.4,69,29.61,1.8,Variable,6.9,21.9,0.00,Snow,Light Snow,0,2012-11-25 01:07:00
8:44 PM,28.4,19.4,69,29.61,2.5,WNW,8.1,18.4,0.00,Snow,Light Snow,290,2012-11-25 01:44:00
8:54 PM,28.0,19.0,69,29.64,3.0,WNW,8.1,21.9,0.00,Snow,Light Snow,300,2012-11-25 01:54:00
9:09 PM,28.4,19.4,69,29.61,1.8,WNW,9.2,20.7,0.00,Snow,Light Snow,290,2012-11-25 02:09:00
9:26 PM,28.4,19.4,69,29.62,2.0,WNW,10.4,19.6,0.00,Snow,Light Snow,290,2012-11-25 02:26:00
9:54 PM,28.0,19.0,69,29.65,1.8,WNW,15.0,28.8,0.00,Snow,Light Snow,300,2012-11-25 02:54:00
10:51 PM,26.6,17.6,69,29.62,2.5,WNW,12.7,24.2,0.00,Snow,Light Snow,300,2012-11-25 03:51:00
10:54 PM,27.0,18.0,69,29.65,3.0,NW,16.1,27.6,0.00,Snow,Light Snow,310,2012-11-25 03:54:00
11:11 PM,26.6,17.6,69,29.62,3.0,NW,16.1,21.9,0.00,Snow,Light Snow,310,2012-11-25 04:11:00
11:54 PM,27.0,16.0,63,29.66,4.0,WNW,9.2,18.4,0.00,Snow,Light Snow,300,2012-11-25 04:54:00